Location: Dortmund
(51.5019°N, 7.6520°E)
Time: 03:07:47
(UTC+01:00)

ISS - Pass Details

Date: 12 November 2017
Orbit: 402 x 407 km, 51.6° (Epoch: 22 November)

Event Time Altitude Azimuth Distance (km) Brightness Sun altitude
Exits shadow 05:52:31 49° 251° (WSW) 530 -3.7 -17.0°
Maximum altitude 05:53:09 63° 198° (SSW) 454 -3.7 -16.9°
Drops below altitude 10° 05:56:23 10° 117° (ESE) 1,454 0.1 -16.4°
Sets 05:58:28 0° 114° (ESE) 2,312 1.5 -16.1°
